Regional Weather Roundup
Issued by NWS

Home | Current Version | Previous Version | Graphics & Text | Print | Product List | Glossary On
Versions: 1 2 3 4 5 6 7 8 9 10 11 12 13 14 15 16 17 18 19 20 21 22 23 24 25 26 27 28 29 30 31 32 33 34 35 36 37 38 39 40 41 42 43 44 45 46 47 48 49 50
000
ASUS45 KSLC 311410
RWRUT

UTAH REGIONAL WEATHER ROUNDUP
NATIONAL WEATHER SERVICE SALT LAKE CITY UT
800 AM MDT TUE MAY 31 2016

UTZ001>011-023>025-311500-

NORTHERN UTAH

CITY           SKY/WX    TMP DP  RH WIND       PRES   REMARKS
BRIGHAM CITY     N/A     51  37  60 CALM      30.10R
HILL AFB       MOSUNNY   52  39  61 E20       30.10R
LOGAN          SUNNY     46  42  86 CALM      30.13R
OGDEN          SUNNY     56  40  55 CALM      30.09R
PROVO AIRPORT  MOSUNNY   54  36  50 CALM      30.11R
SALT LAKE CITY MOSUNNY   60  40  47 SE7       30.09R
VERNAL         SUNNY     59  35  40 CALM      30.11R
WENDOVER       SUNNY     63  28  27 SE6       30.11R
HEBER CITY     SUNNY     45  36  70 CALM      30.14S
WEST JORDAN    SUNNY     57  36  44 CALM      30.11R

$$

UTZ012>022-026-027-311500-

SOUTHERN/CENTRAL UTAH

CITY           SKY/WX    TMP DP  RH WIND       PRES   REMARKS
BLANDING       SUNNY     61  32  34 S3        30.12S
BRYCE CANYON   SUNNY     52  34  50 NW7       30.20R
CEDAR CITY     SUNNY     55  31  39 NW6       30.10S
DELTA          SUNNY     57  37  47 CALM      30.11R
HANKSVILLE     SUNNY     59  32  36 CALM      30.05R
MILFORD        SUNNY     57  34  41 N7        30.10R
MOAB/CYNLANDS  SUNNY     69  33  26 E5        30.00R
PRICE          SUNNY     61  28  28 N5        30.09R
ST GEORGE      SUNNY     68  30  24 SE3       29.97R

$$

REGIONAL REPORTS     COLORADO/ARIZONA

CITY           SKY/WX    TMP DP  RH WIND       PRES   REMARKS
CRAIG, CO      MOSUNNY   48  40  73 CALM      30.16S
GRAND JUNCTION SUNNY     59  37  44 S9        30.05S
RIFLE          SUNNY     50  36  58 CALM      30.12S
MONTROSE       SUNNY     54  33  45 S8        30.12S
CORTEZ         SUNNY     53  32  44 SE6       30.07R
PAGE, AZ       SUNNY     69  32  25 N5        29.99R
GRAND CANYON   SUNNY     51  31  46 CALM      30.12R
KINGMAN        MOSUNNY   70  28  21 CALM      29.93R
FLAGSTAFF      SUNNY     48  29  47 CALM      30.13R

$$

REGIONAL REPORTS    NEVADA/IDAHO/WYOMING

CITY           SKY/WX    TMP DP  RH WIND       PRES   REMARKS
LAS VEGAS, NV  MOSUNNY   79  34  19 CALM      29.84R
ELY            SUNNY     44  34  67 S8        30.19R
ELKO           SUNNY     48  36  63 W3        30.18R
POCATELLO, ID  SUNNY     49  34  56 N5        30.16R
BURLEY         SUNNY     52  38  58 CALM      30.14R
EVANSTON, WY   SUNNY     46  38  73 N3        30.19R
ROCK SPRINGS   MOSUNNY   44  40  85 E6        30.19S
KEMMERER         N/A     45  32  61 N8        30.20S

$$



USA.gov is the U.S. government's official web portal to all federal, state and local government web resources and services.